| time (UTC) | temp C | wind direction | speed KPH | gust KPH | rain 1hr cm | rain 24hr cm | rain mn cm | humidity % | barometer mb |
| 20260507172158 | 15 | 15 | 4.8 | 14.5 | 0.00 | 0.46 | 0.00 | 23 | 1007.0 |
| 20260507171718 | 15 | 225 | 6.4 | 14.5 | 0.00 | 0.46 | 0.00 | 25 | 1007.1 |
| 20260507171215 | 15 | 322 | 3.2 | 16.1 | 0.00 | 0.46 | 0.00 | 24 | 1007.1 |
| 20260507170651 | 15 | 285 | 4.8 | 16.1 | 0.00 | 0.46 | 0.00 | 22 | 1007.1 |
| 20260507170212 | 15 | 319 | 4.8 | 20.9 | 0.00 | 0.46 | 0.00 | 25 | 1007.2 |
| 20260507170125 | 15 | 268 | 3.2 | 20.9 | 0.00 | 0.46 | 0.00 | 25 | 1007.1 |
| 20260507165712 | 15 | 174 | 9.7 | 20.9 | 0.00 | 0.46 | 0.00 | 21 | 1007.3 |
| 20260507165209 | 15 | 278 | 6.4 | 16.1 | 0.00 | 0.46 | 0.00 | 22 | 1007.4 |
| 20260507164703 | 15 | 353 | 3.2 | 11.3 | 0.00 | 0.46 | 0.00 | 23 | 1007.4 |
| 20260507164158 | 15 | 53 | 1.6 | 16.1 | 0.00 | 0.46 | 0.00 | 26 | 1007.5 |
| 20260507163658 | 15 | 283 | 6.4 | 16.1 | 0.00 | 0.46 | 0.00 | 22 | 1007.6 |
| 20260507163153 | 15 | 63 | 6.4 | 12.9 | 0.00 | 0.46 | 0.00 | 23 | 1007.6 |
| 20260507162653 | 15 | 228 | 4.8 | 12.9 | 0.00 | 0.46 | 0.00 | 22 | 1007.6 |
| 20260507162213 | 15 | 354 | 3.2 | 12.9 | 0.00 | 0.46 | 0.00 | 26 | 1007.5 |
| 20260507161656 | 15 | 288 | 4.8 | 17.7 | 0.00 | 0.46 | 0.00 | 28 | 1007.6 |
| 20260507161152 | 15 | 65 | 4.8 | 17.7 | 0.00 | 0.46 | 0.00 | 25 | 1007.7 |
| 20260507160653 | 15 | 7 | 3.2 | 12.9 | 0.00 | 0.46 | 0.00 | 26 | 1007.6 |
| 20260507160214 | 15 | 116 | 4.8 | 12.9 | 0.00 | 0.46 | 0.00 | 29 | 1007.8 |
| 20260507160127 | 15 | 266 | 3.2 | 12.9 | 0.00 | 0.46 | 0.00 | 30 | 1007.7 |
| 20260507155714 | 15 | 36 | 4.8 | 17.7 | 0.00 | 0.46 | 0.00 | 26 | 1007.7 |
| 20260507155225 | 15 | 37 | 4.8 | 17.7 | 0.00 | 0.46 | 0.00 | 29 | 1007.7 |
| 20260507154702 | 14 | 229 | 4.8 | 11.3 | 0.00 | 0.46 | 0.00 | 32 | 1007.8 |
| 20260507154221 | 14 | 231 | 3.2 | 19.3 | 0.00 | 0.46 | 0.00 | 28 | 1007.8 |
| 20260507153722 | 13 | 276 | 4.8 | 19.3 | 0.00 | 0.46 | 0.00 | 30 | 1007.9 |
| 20260507153159 | 13 | 280 | 8.0 | 29.0 | 0.00 | 0.46 | 0.00 | 32 | 1008.0 |
| 20260507152659 | 13 | 248 | 9.7 | 29.0 | 0.00 | 0.46 | 0.00 | 29 | 1008.1 |
| 20260507152159 | 13 | 311 | 4.8 | 11.3 | 0.00 | 0.46 | 0.00 | 33 | 1008.2 |
| 20260507151700 | 13 | 115 | 4.8 | 20.9 | 0.00 | 0.46 | 0.00 | 34 | 1008.0 |
| 20260507151158 | 13 | 110 | 8.0 | 20.9 | 0.00 | 0.46 | 0.00 | 34 | 1008.1 |
| 20260507150659 | 13 | 275 | 3.2 | 14.5 | 0.00 | 0.46 | 0.00 | 40 | 1008.2 |
| 20260507150214 | 13 | 337 | 3.2 | 11.3 | 0.00 | 0.46 | 0.00 | 38 | 1008.2 |
| 20260507150132 | 13 | 305 | 3.2 | 11.3 | 0.00 | 0.46 | 0.00 | 40 | 1008.1 |
| 20260507145712 | 13 | 252 | 4.8 | 16.1 | 0.00 | 0.46 | 0.00 | 36 | 1008.3 |
| 20260507145208 | 13 | 251 | 6.4 | 16.1 | 0.00 | 0.46 | 0.00 | 37 | 1008.2 |
| 20260507144725 | 13 | 315 | 3.2 | 11.3 | 0.00 | 0.46 | 0.00 | 39 | 1008.2 |
| 20260507144201 | 13 | 319 | 4.8 | 16.1 | 0.00 | 0.46 | 0.00 | 38 | 1008.2 |
| 20260507143703 | 12 | 265 | 6.4 | 16.1 | 0.00 | 0.46 | 0.00 | 39 | 1008.1 |
| 20260507143200 | 12 | 297 | 6.4 | 16.1 | 0.00 | 0.46 | 0.00 | 46 | 1008.2 |
| 20260507142701 | 12 | 342 | 6.4 | 19.3 | 0.00 | 0.46 | 0.00 | 45 | 1008.1 |
| 20260507142200 | 12 | 274 | 8.0 | 19.3 | 0.00 | 0.46 | 0.00 | 44 | 1008.0 |
| 20260507141701 | 13 | 207 | 4.8 | 17.7 | 0.00 | 0.46 | 0.00 | 44 | 1008.0 |
| 20260507141200 | 13 | 25 | 6.4 | 17.7 | 0.00 | 0.46 | 0.00 | 44 | 1008.0 |
| 20260507140653 | 13 | 268 | 6.4 | 12.9 | 0.00 | 0.46 | 0.00 | 44 | 1007.9 |
| 20260507140152 | 12 | 269 | 1.6 | 9.7 | 0.00 | 0.46 | 0.00 | 45 | 1008.1 |
| 20260507135653 | 12 | 291 | 3.2 | 9.7 | 0.00 | 0.46 | 0.00 | 45 | 1008.1 |
| 20260507135211 | 12 | 239 | 1.6 | 14.5 | 0.00 | 0.46 | 0.00 | 48 | 1008.0 |
| 20260507134713 | 12 | 290 | 4.8 | 14.5 | 0.00 | 0.46 | 0.00 | 46 | 1008.0 |
| 20260507134626 | 11 | 307 | 3.2 | 14.5 | 0.00 | 0.46 | 0.00 | 46 | 1007.9 |
| 20260507134229 | 12 | 311 | 1.6 | 11.3 | 0.00 | 0.46 | 0.00 | 46 | 1008.0 |
| 20260507133727 | 12 | 326 | 3.2 | 14.5 | 0.00 | 0.46 | 0.00 | 47 | 1008.0 |
| 20260507133206 | 12 | 275 | 4.8 | 14.5 | 0.00 | 0.46 | 0.00 | 49 | 1008.0 |
| 20260507133117 | 12 | 300 | 3.2 | 12.9 | 0.00 | 0.46 | 0.00 | 49 | 1008.0 |
| 20260507132704 | 11 | 295 | 3.2 | 16.1 | 0.00 | 0.46 | 0.00 | 48 | 1008.1 |
| 20260507132158 | 11 | 290 | 6.4 | 16.1 | 0.00 | 0.46 | 0.00 | 49 | 1008.2 |
| 20260507131718 | 11 | 284 | 3.2 | 11.3 | 0.00 | 0.46 | 0.00 | 49 | 1008.2 |
| 20260507131214 | 11 | 312 | 3.2 | 11.3 | 0.00 | 0.46 | 0.00 | 48 | 1008.2 |
| 20260507130650 | 11 | 296 | 3.2 | 8.0 | 0.00 | 0.46 | 0.00 | 48 | 1008.3 |
| 20260507130212 | 11 | 220 | 1.6 | 6.4 | 0.00 | 0.46 | 0.00 | 48 | 1008.3 |
| 20260507130125 | 11 | 247 | 1.6 | 6.4 | 0.00 | 0.46 | 0.00 | 48 | 1008.2 |
| 20260507125712 | 11 | 267 | 0.0 | 6.4 | 0.00 | 0.46 | 0.00 | 49 | 1008.3 |
| 20260507125210 | 11 | 34 | 1.6 | 6.4 | 0.00 | 0.46 | 0.00 | 50 | 1008.2 |
| 20260507124709 | 11 | 280 | 1.6 | 6.4 | 0.00 | 0.46 | 0.00 | 52 | 1008.3 |
| 20260507124624 | 10 | 243 | 1.6 | 6.4 | 0.00 | 0.46 | 0.00 | 52 | 1008.2 |
| 20260507124206 | 10 | 320 | 1.6 | 6.4 | 0.00 | 0.46 | 0.00 | 50 | 1008.3 |
| 20260507123705 | 10 | 293 | 0.0 | 6.4 | 0.00 | 0.46 | 0.00 | 52 | 1008.2 |
| 20260507123203 | 10 | 6 | 1.6 | 11.3 | 0.00 | 0.46 | 0.00 | 53 | 1008.2 |
| 20260507122719 | 10 | 205 | 3.2 | 11.3 | 0.00 | 0.46 | 0.00 | 52 | 1008.3 |
| 20260507122217 | 10 | 160 | 3.2 | 11.3 | 0.00 | 0.46 | 0.00 | 53 | 1008.3 |
| 20260507121157 | 10 | 316 | 1.6 | 11.3 | 0.00 | 0.46 | 0.00 | 54 | 1008.3 |
| 20260507120658 | 10 | 126 | 3.2 | 12.9 | 0.00 | 0.46 | 0.00 | 55 | 1008.3 |
| 20260507120256 | 10 | 281 | 0.0 | 6.4 | 0.00 | 0.46 | 0.00 | 55 | 1008.4 |
| 20260507120124 | 9 | 358 | 0.0 | 6.4 | 0.00 | 0.46 | 0.00 | 55 | 1008.4 |
| 20260507115711 | 9 | 51 | 0.0 | 16.1 | 0.00 | 0.46 | 0.00 | 56 | 1008.5 |
| 20260507115207 | 9 | 258 | 4.8 | 16.1 | 0.00 | 0.46 | 0.00 | 55 | 1008.5 |
| 20260507114721 | 9 | 307 | 1.6 | 8.0 | 0.00 | 0.46 | 0.00 | 57 | 1008.5 |
| 20260507114158 | 8 | 3 | 3.2 | 9.7 | 0.00 | 0.46 | 0.00 | 57 | 1008.4 |
| 20260507113701 | 8 | 39 | 1.6 | 9.7 | 0.00 | 0.46 | 0.00 | 57 | 1008.4 |
| 20260507113209 | 8 | 300 | 1.6 | 4.8 | 0.00 | 0.46 | 0.00 | 59 | 1008.4 |
| 20260507113121 | 8 | 258 | 1.6 | 4.8 | 0.00 | 0.46 | 0.00 | 59 | 1008.2 |
| 20260507112707 | 8 | 323 | 0.0 | 3.2 | 0.00 | 0.46 | 0.00 | 59 | 1008.2 |
| 20260507112224 | 8 | 285 | 0.0 | 8.0 | 0.00 | 0.46 | 0.00 | 59 | 1008.3 |
| 20260507111703 | 8 | 276 | 3.2 | 8.0 | 0.00 | 0.46 | 0.00 | 59 | 1008.3 |
| 20260507111202 | 8 | 259 | 1.6 | 8.0 | 0.00 | 0.46 | 0.00 | 59 | 1008.3 |
| 20260507110702 | 7 | 213 | 0.0 | 6.4 | 0.00 | 0.46 | 0.00 | 60 | 1008.3 |
| 20260507110216 | 7 | 258 | 1.6 | 6.4 | 0.00 | 0.46 | 0.00 | 60 | 1008.2 |
| 20260507110134 | 7 | 267 | 1.6 | 6.4 | 0.00 | 0.46 | 0.00 | 60 | 1008.1 |
| 20260507105734 | 7 | 219 | 1.6 | 6.4 | 0.00 | 0.46 | 0.00 | 61 | 1008.2 |
| 20260507105211 | 7 | 285 | 1.6 | 6.4 | 0.00 | 0.46 | 0.00 | 60 | 1008.0 |
| 20260507104710 | 7 | 319 | 1.6 | 4.8 | 0.00 | 0.46 | 0.00 | 60 | 1008.0 |
| 20260507104622 | 7 | 300 | 0.0 | 4.8 | 0.00 | 0.46 | 0.00 | 60 | 1007.8 |
| 20260507104206 | 7 | 237 | 0.0 | 3.2 | 0.00 | 0.46 | 0.00 | 60 | 1007.9 |
| 20260507103725 | 7 | 193 | 0.0 | 4.8 | 0.00 | 0.46 | 0.00 | 61 | 1007.8 |
| 20260507103203 | 7 | 323 | 1.6 | 4.8 | 0.00 | 0.46 | 0.00 | 61 | 1007.7 |
| 20260507102703 | 7 | 253 | 1.6 | 3.2 | 0.00 | 0.46 | 0.00 | 61 | 1007.8 |
| 20260507102201 | 7 | 271 | 0.0 | 4.8 | 0.00 | 0.46 | 0.00 | 61 | 1007.8 |
| 20260507101702 | 7 | 290 | 1.6 | 4.8 | 0.00 | 0.46 | 0.00 | 61 | 1007.9 |
| 20260507101152 | 7 | 286 | 0.0 | 3.2 | 0.00 | 0.46 | 0.00 | 61 | 1007.8 |
| 20260507100657 | 7 | 250 | 0.0 | 3.2 | 0.00 | 0.46 | 0.00 | 61 | 1007.8 |
| 20260507100152 | 7 | 250 | 0.0 | 3.2 | 0.00 | 0.46 | 0.00 | 61 | 1007.9 |
| 20260507095652 | 7 | 281 | 0.0 | 0.0 | 0.00 | 0.46 | 0.00 | 61 | 1007.8 |
| 20260507095254 | 7 | 319 | 0.0 | 1.6 | 0.00 | 0.46 | 0.00 | 60 | 1007.6 |
| 20260507094725 | 7 | 316 | 0.0 | 3.2 | 0.00 | 0.46 | 0.00 | 60 | 1007.8 |
| 20260507094204 | 7 | 324 | 0.0 | 3.2 | 0.00 | 0.46 | 0.00 | 60 | 1008.1 |
| 20260507093704 | 8 | 314 | 0.0 | 3.2 | 0.00 | 0.46 | 0.00 | 60 | 1008.1 |
| 20260507093204 | 8 | 303 | 1.6 | 4.8 | 0.00 | 0.46 | 0.00 | 60 | 1008.0 |
| 20260507092719 | 8 | 243 | 1.6 | 8.0 | 0.00 | 0.46 | 0.00 | 60 | 1007.9 |
| 20260507092151 | 8 | 266 | 1.6 | 12.9 | 0.00 | 0.46 | 0.00 | 59 | 1007.9 |
| 20260507091652 | 8 | 273 | 3.2 | 12.9 | 0.00 | 0.46 | 0.00 | 59 | 1007.9 |
| 20260507091233 | 8 | 321 | 0.0 | 6.4 | 0.00 | 0.46 | 0.00 | 60 | 1008.0 |
| 20260507090649 | 8 | 108 | 3.2 | 6.4 | 0.00 | 0.46 | 0.00 | 60 | 1008.1 |
| 20260507090212 | 7 | 246 | 1.6 | 6.4 | 0.00 | 0.46 | 0.00 | 60 | 1007.9 |
| 20260507090125 | 7 | 244 | 0.0 | 6.4 | 0.00 | 0.46 | 0.00 | 60 | 1007.9 |
| 20260507085708 | 8 | 267 | 1.6 | 4.8 | 0.00 | 0.46 | 0.00 | 60 | 1008.2 |
| 20260507085224 | 7 | 315 | 1.6 | 3.2 | 0.00 | 0.46 | 0.00 | 61 | 1008.2 |
| 20260507084704 | 7 | 288 | 0.0 | 4.8 | 0.00 | 0.46 | 0.00 | 61 | 1008.4 |
| 20260507084157 | 8 | 221 | 0.0 | 4.8 | 0.00 | 0.46 | 0.00 | 61 | 1008.3 |
| 20260507083657 | 8 | 278 | 0.0 | 9.7 | 0.00 | 0.46 | 0.00 | 60 | 1007.9 |
| 20260507083235 | 8 | 312 | 0.0 | 9.7 | 0.00 | 0.46 | 0.00 | 61 | 1007.7 |
| 20260507083126 | 7 | 257 | 0.0 | 9.7 | 0.00 | 0.46 | 0.00 | 61 | 1007.6 |
| 20260507082649 | 8 | 259 | 1.6 | 4.8 | 0.00 | 0.46 | 0.00 | 60 | 1007.9 |
| 20260507082209 | 8 | 269 | 1.6 | 4.8 | 0.00 | 0.46 | 0.00 | 61 | 1007.9 |
| 20260507081651 | 8 | 11 | 0.0 | 3.2 | 0.00 | 0.46 | 0.00 | 61 | 1007.8 |
| 20260507081211 | 8 | 266 | 0.0 | 4.8 | 0.00 | 0.46 | 0.00 | 61 | 1007.9 |
| 20260507080711 | 8 | 257 | 1.6 | 4.8 | 0.00 | 0.46 | 0.00 | 61 | 1007.6 |
| 20260507080207 | 8 | 110 | 0.0 | 3.2 | 0.00 | 0.46 | 0.00 | 61 | 1007.6 |
| 20260507080120 | 7 | 340 | 0.0 | 3.2 | 0.00 | 0.46 | 0.00 | 61 | 1007.4 |
| 20260507075706 | 8 | 264 | 0.0 | 3.2 | 0.00 | 0.46 | 0.00 | 62 | 1007.5 |
| 20260507075220 | 8 | 319 | 0.0 | 0.0 | 0.00 | 0.46 | 0.00 | 61 | 1007.4 |
| 20260507074658 | 8 | 319 | 0.0 | 1.6 | 0.00 | 0.46 | 0.00 | 61 | 1007.7 |
| 20260507074151 | 8 | 319 | 0.0 | 1.6 | 0.00 | 0.46 | 0.00 | 60 | 1007.7 |
| 20260507073656 | 8 | 257 | 0.0 | 4.8 | 0.00 | 0.46 | 0.00 | 60 | 1007.9 |
| 20260507073211 | 8 | 255 | 0.0 | 4.8 | 0.00 | 0.46 | 0.00 | 60 | 1007.9 |
| 20260507072657 | 8 | 262 | 0.0 | 6.4 | 0.00 | 0.46 | 0.00 | 59 | 1007.5 |
| 20260507072152 | 8 | 285 | 3.2 | 9.7 | 0.00 | 0.46 | 0.00 | 59 | 1007.7 |
| 20260507071151 | 8 | 268 | 1.6 | 6.4 | 0.00 | 0.46 | 0.00 | 59 | 1007.1 |
| 20260507070652 | 9 | 297 | 1.6 | 4.8 | 0.00 | 0.46 | 0.00 | 59 | 1007.1 |
| 20260507070214 | 9 | 283 | 1.6 | 4.8 | 0.00 | 0.46 | 0.00 | 59 | 1007.0 |
| 20260507070131 | 8 | 275 | 0.0 | 4.8 | 0.00 | 0.46 | 0.00 | 59 | 1006.9 |
| 20260507065709 | 9 | 288 | 1.6 | 9.7 | 0.00 | 0.46 | 0.00 | 59 | 1007.2 |
| 20260507065206 | 9 | 267 | 0.0 | 9.7 | 0.00 | 0.46 | 0.00 | 59 | 1006.9 |
| 20260507064703 | 9 | 297 | 1.6 | 8.0 | 0.00 | 0.46 | 0.00 | 60 | 1007.1 |
| 20260507064620 | 8 | 19 | 1.6 | 8.0 | 0.00 | 0.46 | 0.00 | 60 | 1007.0 |
| 20260507064159 | 9 | 276 | 1.6 | 8.0 | 0.00 | 0.46 | 0.00 | 60 | 1007.1 |
| 20260507063700 | 9 | 278 | 1.6 | 4.8 | 0.00 | 0.46 | 0.00 | 60 | 1007.0 |
| 20260507063201 | 9 | 253 | 3.2 | 6.4 | 0.00 | 0.46 | 0.00 | 60 | 1006.8 |
| 20260507062700 | 9 | 286 | 1.6 | 8.0 | 0.00 | 0.46 | 0.00 | 60 | 1007.1 |
| 20260507062159 | 10 | 207 | 3.2 | 8.0 | 0.00 | 0.46 | 0.00 | 60 | 1007.2 |
| 20260507061701 | 10 | 276 | 0.0 | 8.0 | 0.00 | 0.46 | 0.00 | 60 | 1006.8 |
| 20260507061158 | 10 | 293 | 3.2 | 8.0 | 0.00 | 0.46 | 0.00 | 60 | 1006.7 |
| 20260507060700 | 10 | 306 | 1.6 | 8.0 | 0.00 | 0.46 | 0.00 | 60 | 1006.9 |
| 20260507060152 | 10 | 358 | 1.6 | 8.0 | 0.00 | 0.46 | 0.00 | 61 | 1007.0 |
| 20260507055651 | 10 | 320 | 1.6 | 6.4 | 0.00 | 0.46 | 0.00 | 61 | 1007.0 |
| 20260507055211 | 10 | 283 | 0.0 | 3.2 | 0.00 | 0.46 | 0.00 | 61 | 1007.1 |
| 20260507054709 | 10 | 318 | 0.0 | 3.2 | 0.00 | 0.46 | 0.00 | 60 | 1007.1 |
| 20260507054627 | 9 | 318 | 0.0 | 3.2 | 0.00 | 0.46 | 0.00 | 60 | 1007.0 |
| 20260507054227 | 10 | 255 | 0.0 | 6.4 | 0.00 | 0.46 | 0.00 | 60 | 1007.4 |
| 20260507053726 | 10 | 277 | 1.6 | 9.7 | 0.00 | 0.46 | 0.00 | 60 | 1007.6 |
| 20260507053224 | 10 | 266 | 3.2 | 9.7 | 0.00 | 0.46 | 0.00 | 60 | 1007.4 |
| 20260507052702 | 10 | 326 | 0.0 | 6.4 | 0.00 | 0.46 | 0.00 | 60 | 1007.5 |
| 20260507052159 | 10 | 210 | 1.6 | 11.3 | 0.00 | 0.46 | 0.00 | 60 | 1007.5 |
| 20260507051712 | 10 | 270 | 4.8 | 11.3 | 0.00 | 0.46 | 0.00 | 60 | 1007.5 |
| 20260507051211 | 10 | 317 | 1.6 | 8.0 | 0.00 | 0.46 | 0.00 | 60 | 1007.7 |
| 20260507050708 | 10 | 259 | 4.8 | 8.0 | 0.00 | 0.46 | 0.00 | 60 | 1007.6 |
| 20260507050204 | 10 | 233 | 0.0 | 1.6 | 0.00 | 0.46 | 0.00 | 61 | 1007.6 |
| 20260507050117 | 10 | 233 | 0.0 | 0.0 | 0.00 | 0.00 | 0.00 | 61 | 1007.2 |
| 20260507045703 | 10 | 130 | 0.0 | 1.6 | 0.00 | 0.46 | 0.00 | 61 | 1007.4 |
| 20260507045202 | 10 | 151 | 0.0 | 1.6 | 0.00 | 0.46 | 0.00 | 60 | 1007.6 |
| 20260507044703 | 10 | 214 | 0.0 | 6.4 | 0.00 | 0.46 | 0.00 | 60 | 1007.3 |
| 20260507044202 | 10 | 314 | 1.6 | 6.4 | 0.00 | 0.46 | 0.00 | 60 | 1007.2 |
| 20260507043703 | 10 | 107 | 0.0 | 8.0 | 0.00 | 0.46 | 0.00 | 60 | 1007.0 |
| 20260507043201 | 10 | 239 | 3.2 | 8.0 | 0.00 | 0.46 | 0.00 | 60 | 1007.0 |
| 20260507042722 | 10 | 234 | 1.6 | 8.0 | 0.00 | 0.46 | 0.00 | 60 | 1007.4 |
| 20260507042156 | 10 | 317 | 0.0 | 4.8 | 0.00 | 0.46 | 0.00 | 60 | 1007.4 |
| 20260507041712 | 10 | 274 | 1.6 | 4.8 | 0.00 | 0.46 | 0.00 | 60 | 1007.4 |
| 20260507041210 | 11 | 266 | 0.0 | 1.6 | 0.00 | 0.46 | 0.00 | 60 | 1007.6 |
| 20260507040732 | 11 | 200 | 0.0 | 3.2 | 0.00 | 0.46 | 0.00 | 60 | 1007.5 |
| 20260507040228 | 11 | 206 | 1.6 | 3.2 | 0.00 | 0.46 | 0.00 | 60 | 1007.5 |
| 20260507040117 | 10 | 254 | 0.0 | 3.2 | 0.00 | 0.46 | 0.46 | 60 | 1007.2 |
| 20260507035725 | 11 | 216 | 0.0 | 6.4 | 0.00 | 0.46 | 0.46 | 59 | 1007.3 |
| 20260507035221 | 11 | 230 | 0.0 | 9.7 | 0.00 | 0.46 | 0.46 | 60 | 1007.3 |
| 20260507034653 | 11 | 248 | 1.6 | 9.7 | 0.03 | 0.46 | 0.46 | 59 | 1007.0 |
| 20260507034152 | 11 | 59 | 1.6 | 6.4 | 0.03 | 0.46 | 0.46 | 59 | 1007.0 |
| 20260507033652 | 11 | 248 | 1.6 | 4.8 | 0.05 | 0.46 | 0.46 | 60 | 1006.9 |
| 20260507033212 | 12 | 359 | 0.0 | 6.4 | 0.05 | 0.46 | 0.46 | 60 | 1006.9 |
| 20260507032711 | 12 | 132 | 1.6 | 6.4 | 0.05 | 0.46 | 0.46 | 60 | 1006.7 |
| 20260507032209 | 12 | 260 | 0.0 | 8.0 | 0.05 | 0.46 | 0.46 | 60 | 1006.7 |
| 20260507031709 | 12 | 302 | 3.2 | 8.0 | 0.05 | 0.46 | 0.46 | 60 | 1006.7 |
| 20260507031621 | 11 | 297 | 1.6 | 8.0 | 0.05 | 0.46 | 0.46 | 60 | 1006.3 |
| 20260507031205 | 12 | 335 | 0.0 | 4.8 | 0.05 | 0.46 | 0.46 | 60 | 1006.5 |
| 20260507030704 | 12 | 285 | 1.6 | 4.8 | 0.05 | 0.46 | 0.46 | 60 | 1006.6 |
| 20260507030200 | 12 | 278 | 0.0 | 8.0 | 0.05 | 0.46 | 0.46 | 61 | 1006.4 |
| 20260507025659 | 12 | 266 | 1.6 | 8.0 | 0.05 | 0.46 | 0.46 | 61 | 1006.4 |
| 20260507025153 | 12 | 300 | 1.6 | 12.9 | 0.05 | 0.46 | 0.46 | 60 | 1006.3 |
| 20260507024653 | 12 | 236 | 3.2 | 12.9 | 0.03 | 0.43 | 0.43 | 60 | 1006.5 |
| 20260507024149 | 13 | 41 | 4.8 | 14.5 | 0.03 | 0.43 | 0.43 | 59 | 1006.6 |
| 20260507023712 | 13 | 214 | 4.8 | 14.5 | 0.00 | 0.41 | 0.41 | 59 | 1006.7 |
| 20260507023230 | 13 | 296 | 3.2 | 11.3 | 0.00 | 0.41 | 0.41 | 59 | 1006.8 |
| 20260507023124 | 13 | 323 | 1.6 | 14.5 | 0.00 | 0.41 | 0.41 | 59 | 1006.5 |
| 20260507022709 | 14 | 299 | 3.2 | 14.5 | 0.00 | 0.41 | 0.41 | 59 | 1006.6 |
| 20260507022205 | 14 | 19 | 4.8 | 14.5 | 0.00 | 0.41 | 0.41 | 61 | 1006.5 |
| 20260507021704 | 14 | 281 | 1.6 | 6.4 | 0.00 | 0.41 | 0.41 | 63 | 1006.3 |
| 20260507021200 | 15 | 218 | 1.6 | 6.4 | 0.00 | 0.41 | 0.41 | 63 | 1006.0 |
| 20260507020651 | 15 | 7 | 1.6 | 6.4 | 0.00 | 0.41 | 0.41 | 64 | 1005.9 |
| 20260507020150 | 15 | 265 | 1.6 | 4.8 | 0.00 | 0.41 | 0.41 | 64 | 1005.9 |
| 20260507015650 | 15 | 233 | 1.6 | 4.8 | 0.00 | 0.41 | 0.41 | 64 | 1006.0 |
| 20260507015148 | 15 | 230 | 0.0 | 8.0 | 0.00 | 0.41 | 0.41 | 64 | 1005.9 |
| 20260507014712 | 15 | 262 | 0.0 | 8.0 | 0.00 | 0.41 | 0.41 | 64 | 1006.0 |
| 20260507014626 | 14 | 262 | 0.0 | 8.0 | 0.00 | 0.41 | 0.41 | 64 | 1005.7 |
| 20260507014228 | 14 | 269 | 0.0 | 3.2 | 0.00 | 0.41 | 0.41 | 64 | 1005.9 |
| 20260507013705 | 14 | 51 | 0.0 | 3.2 | 0.00 | 0.41 | 0.41 | 64 | 1005.7 |
| 20260507013222 | 14 | 145 | 0.0 | 1.6 | 0.00 | 0.41 | 0.41 | 64 | 1005.8 |
| 20260507012702 | 14 | 145 | 0.0 | 1.6 | 0.00 | 0.41 | 0.41 | 64 | 1005.7 |
| 20260507012159 | 14 | 144 | 0.0 | 0.0 | 0.00 | 0.41 | 0.41 | 64 | 1005.7 |
| 20260507011654 | 14 | 144 | 0.0 | 0.0 | 0.00 | 0.41 | 0.41 | 64 | 1005.7 |
| 20260507011151 | 14 | 145 | 0.0 | 1.6 | 0.00 | 0.41 | 0.41 | 64 | 1005.7 |
| 20260507010651 | 14 | 144 | 0.0 | 1.6 | 0.00 | 0.41 | 0.41 | 64 | 1005.8 |
| 20260507010149 | 14 | 144 | 0.0 | 3.2 | 0.00 | 0.41 | 0.41 | 64 | 1005.7 |
| 20260507005650 | 14 | 86 | 0.0 | 3.2 | 0.00 | 0.41 | 0.41 | 64 | 1005.7 |
| 20260507005212 | 14 | 178 | 0.0 | 3.2 | 0.00 | 0.41 | 0.41 | 64 | 1005.7 |
| 20260507004708 | 14 | 188 | 0.0 | 3.2 | 0.00 | 0.41 | 0.41 | 64 | 1005.6 |
| 20260507004622 | 14 | 188 | 0.0 | 3.2 | 0.00 | 0.41 | 0.41 | 64 | 1005.2 |
| 20260507004204 | 14 | 272 | 0.0 | 8.0 | 0.00 | 0.41 | 0.41 | 64 | 1005.6 |
| 20260507003704 | 14 | 304 | 0.0 | 8.0 | 0.00 | 0.41 | 0.41 | 64 | 1005.5 |
| 20260507003201 | 14 | 104 | 0.0 | 1.6 | 0.00 | 0.41 | 0.41 | 64 | 1005.4 |
| 20260507002713 | 14 | 133 | 0.0 | 6.4 | 0.00 | 0.41 | 0.41 | 64 | 1005.2 |
| 20260507002151 | 14 | 126 | 0.0 | 6.4 | 0.00 | 0.41 | 0.41 | 64 | 1005.1 |
| 20260507001713 | 14 | 116 | 0.0 | 3.2 | 0.00 | 0.41 | 0.41 | 64 | 1005.1 |
| 20260507001210 | 14 | 118 | 0.0 | 3.2 | 0.00 | 0.41 | 0.41 | 64 | 1005.2 |
| 20260507000752 | 14 | 141 | 0.0 | 3.2 | 0.00 | 0.41 | 0.41 | 64 | 1005.4 |
| 20260507000205 | 14 | 299 | 0.0 | 4.8 | 0.00 | 0.41 | 0.41 | 64 | 1005.3 |
| 20260507000118 | 14 | 299 | 0.0 | 4.8 | 0.00 | 0.41 | 0.41 | 63 | 1004.9 |
| 20260506235704 | 14 | 84 | 1.6 | 4.8 | 0.00 | 0.41 | 0.41 | 64 | 1005.3 |
| 20260506235219 | 14 | 113 | 0.0 | 8.0 | 0.00 | 0.41 | 0.41 | 63 | 1005.2 |
| 20260506234654 | 15 | 240 | 1.6 | 8.0 | 0.03 | 0.41 | 0.41 | 63 | 1005.3 |
| 20260506234152 | 15 | 137 | 0.0 | 4.8 | 0.03 | 0.41 | 0.41 | 63 | 1005.2 |
| 20260506233653 | 15 | 243 | 0.0 | 4.8 | 0.03 | 0.41 | 0.41 | 63 | 1005.2 |
| 20260506233152 | 15 | 252 | 1.6 | 4.8 | 0.03 | 0.41 | 0.41 | 63 | 1005.1 |
| 20260506232652 | 15 | 239 | 0.0 | 3.2 | 0.03 | 0.41 | 0.41 | 63 | 1005.2 |
| 20260506232149 | 15 | 137 | 0.0 | 4.8 | 0.03 | 0.41 | 0.41 | 63 | 1005.0 |
| 20260506231649 | 15 | 135 | 0.0 | 4.8 | 0.03 | 0.41 | 0.41 | 63 | 1004.8 |
| 20260506231209 | 15 | 231 | 0.0 | 6.4 | 0.03 | 0.41 | 0.41 | 63 | 1004.9 |
| 20260506230708 | 15 | 131 | 0.0 | 9.7 | 0.03 | 0.41 | 0.41 | 63 | 1004.9 |
| 20260506230225 | 15 | 25 | 0.0 | 9.7 | 0.03 | 0.41 | 0.41 | 63 | 1004.9 |
| 20260506230117 | 14 | 162 | 0.0 | 9.7 | 0.03 | 0.41 | 0.41 | 63 | 1004.7 |
| 20260506225659 | 15 | 110 | 0.0 | 6.4 | 0.03 | 0.41 | 0.41 | 63 | 1005.0 |
| 20260506225214 | 15 | 27 | 0.0 | 1.6 | 0.03 | 0.41 | 0.41 | 63 | 1005.2 |
| 20260506224654 | 15 | 117 | 0.0 | 1.6 | 0.00 | 0.38 | 0.38 | 63 | 1005.2 |
| 20260506224150 | 15 | 115 | 0.0 | 6.4 | 0.00 | 0.38 | 0.38 | 63 | 1005.2 |
| 20260506223651 | 15 | 134 | 1.6 | 6.4 | 0.00 | 0.38 | 0.38 | 63 | 1005.3 |
| 20260506223211 | 15 | 262 | 0.0 | 6.4 | 0.00 | 0.38 | 0.38 | 63 | 1005.2 |
| 20260506223128 | 14 | 262 | 0.0 | 6.4 | 0.00 | 0.38 | 0.38 | 63 | 1004.8 |
| 20260506222647 | 15 | 155 | 0.0 | 6.4 | 0.00 | 0.38 | 0.38 | 63 | 1005.2 |
| 20260506222209 | 15 | 114 | 0.0 | 3.2 | 0.00 | 0.38 | 0.38 | 62 | 1005.2 |
| 20260506221709 | 15 | 193 | 0.0 | 4.8 | 0.00 | 0.38 | 0.38 | 62 | 1005.3 |
| 20260506221624 | 14 | 214 | 0.0 | 4.8 | 0.00 | 0.38 | 0.38 | 62 | 1004.8 |
| 20260506221206 | 15 | 120 | 1.6 | 6.4 | 0.03 | 0.38 | 0.38 | 62 | 1005.3 |
| 20260506220705 | 15 | 303 | 1.6 | 8.0 | 0.03 | 0.38 | 0.38 | 62 | 1005.4 |
| 20260506215711 | 15 | 101 | 0.0 | 4.8 | 0.05 | 0.38 | 0.38 | 62 | 1005.3 |
| 20260506215227 | 15 | 86 | 1.6 | 6.4 | 0.05 | 0.38 | 0.38 | 62 | 1005.4 |
| 20260506214719 | 15 | 259 | 1.6 | 11.3 | 0.05 | 0.38 | 0.38 | 62 | 1005.4 |
| 20260506214153 | 15 | 127 | 1.6 | 11.3 | 0.05 | 0.38 | 0.38 | 62 | 1005.4 |
| 20260506213658 | 15 | 175 | 1.6 | 9.7 | 0.08 | 0.38 | 0.38 | 62 | 1005.4 |
| 20260506213158 | 15 | 127 | 1.6 | 3.2 | 0.08 | 0.38 | 0.38 | 62 | 1005.5 |
| 20260506212659 | 15 | 112 | 1.6 | 3.2 | 0.10 | 0.38 | 0.38 | 62 | 1005.5 |
| 20260506212213 | 15 | 243 | 0.0 | 6.4 | 0.13 | 0.38 | 0.38 | 61 | 1005.5 |
| 20260506211733 | 15 | 179 | 1.6 | 6.4 | 0.13 | 0.38 | 0.38 | 61 | 1005.5 |
| 20260506211628 | 15 | 236 | 0.0 | 6.4 | 0.15 | 0.38 | 0.38 | 61 | 1005.0 |
| 20260506211230 | 15 | 252 | 1.6 | 4.8 | 0.13 | 0.36 | 0.36 | 61 | 1005.6 |
| 20260506210707 | 15 | 96 | 1.6 | 9.7 | 0.13 | 0.36 | 0.36 | 61 | 1005.6 |
| 20260506210243 | 15 | 129 | 1.6 | 9.7 | 0.13 | 0.36 | 0.36 | 61 | 1005.6 |
| 20260506205658 | 15 | 153 | 1.6 | 8.0 | 0.10 | 0.33 | 0.33 | 60 | 1005.6 |
| 20260506205157 | 15 | 177 | 1.6 | 12.9 | 0.13 | 0.33 | 0.33 | 60 | 1005.7 |
| 20260506204654 | 15 | 120 | 1.6 | 6.4 | 0.13 | 0.33 | 0.33 | 60 | 1005.7 |
| 20260506203653 | 16 | 224 | 1.6 | 8.0 | 0.13 | 0.30 | 0.30 | 59 | 1005.8 |
| 20260506203147 | 16 | 251 | 1.6 | 3.2 | 0.13 | 0.30 | 0.30 | 59 | 1005.8 |
| 20260506202712 | 16 | 231 | 1.6 | 4.8 | 0.10 | 0.28 | 0.28 | 58 | 1005.8 |
| 20260506202208 | 16 | 306 | 1.6 | 4.8 | 0.08 | 0.25 | 0.25 | 57 | 1005.9 |
| 20260506201706 | 16 | 124 | 1.6 | 4.8 | 0.05 | 0.23 | 0.25 | 57 | 1005.9 |
| 20260506201620 | 16 | 122 | 1.6 | 4.8 | 0.05 | 0.23 | 0.23 | 57 | 1005.4 |
| 20260506201205 | 16 | 288 | 1.6 | 4.8 | 0.05 | 0.23 | 0.23 | 56 | 1005.9 |
| 20260506200725 | 16 | 125 | 0.0 | 4.8 | 0.05 | 0.23 | 0.23 | 56 | 1005.9 |
| 20260506200202 | 16 | 144 | 0.0 | 6.4 | 0.05 | 0.23 | 0.23 | 55 | 1006.0 |
| 20260506195723 | 16 | 105 | 1.6 | 6.4 | 0.05 | 0.23 | 0.23 | 55 | 1006.0 |
| 20260506195200 | 16 | 101 | 0.0 | 6.4 | 0.05 | 0.20 | 0.20 | 55 | 1006.1 |
| 20260506194702 | 16 | 140 | 1.6 | 6.4 | 0.05 | 0.20 | 0.20 | 55 | 1006.2 |
| 20260506194153 | 16 | 92 | 0.0 | 6.4 | 0.03 | 0.18 | 0.18 | 55 | 1006.2 |
| 20260506193658 | 16 | 128 | 1.6 | 6.4 | 0.03 | 0.18 | 0.18 | 55 | 1006.3 |
| 20260506193157 | 16 | 217 | 3.2 | 9.7 | 0.03 | 0.18 | 0.18 | 55 | 1006.4 |
| 20260506192657 | 16 | 231 | 1.6 | 9.7 | 0.03 | 0.18 | 0.18 | 55 | 1006.4 |
| 20260506192213 | 16 | 144 | 0.0 | 11.3 | 0.05 | 0.18 | 0.18 | 55 | 1006.3 |
| 20260506191713 | 16 | 255 | 1.6 | 11.3 | 0.05 | 0.18 | 0.18 | 55 | 1006.1 |
| 20260506191150 | 16 | 231 | 1.6 | 6.4 | 0.08 | 0.18 | 0.18 | 56 | 1006.1 |
| 20260506190653 | 16 | 117 | 0.0 | 1.6 | 0.08 | 0.18 | 0.18 | 56 | 1006.0 |
| 20260506190152 | 16 | 117 | 0.0 | 3.2 | 0.10 | 0.18 | 0.18 | 56 | 1005.9 |
| 20260506185652 | 16 | 25 | 1.6 | 4.8 | 0.10 | 0.18 | 0.18 | 56 | 1006.0 |
| 20260506185149 | 16 | 118 | 1.6 | 8.0 | 0.10 | 0.15 | 0.15 | 56 | 1006.3 |
| 20260506184707 | 16 | 98 | 1.6 | 8.0 | 0.13 | 0.15 | 0.15 | 56 | 1006.4 |
| 20260506184627 | 16 | 76 | 0.0 | 4.8 | 0.13 | 0.15 | 0.15 | 56 | 1005.9 |
| 20260506184203 | 16 | 142 | 0.0 | 4.8 | 0.15 | 0.15 | 0.15 | 57 | 1006.5 |
| 20260506183702 | 16 | 115 | 0.0 | 1.6 | 0.15 | 0.15 | 0.15 | 57 | 1006.5 |
| 20260506183221 | 16 | 67 | 0.0 | 4.8 | 0.15 | 0.15 | 0.15 | 58 | 1006.5 |
| 20260506182701 | 16 | 40 | 1.6 | 4.8 | 0.15 | 0.15 | 0.15 | 59 | 1006.7 |
| 20260506182159 | 16 | 150 | 0.0 | 6.4 | 0.13 | 0.13 | 0.13 | 63 | 1006.9 |
| 20260506181659 | 16 | 147 | 1.6 | 8.0 | 0.13 | 0.13 | 0.13 | 63 | 1006.9 |
| 20260506181151 | 16 | 164 | 0.0 | 8.0 | 0.10 | 0.10 | 0.10 | 64 | 1007.0 |
| 20260506180650 | 16 | 339 | 1.6 | 8.0 | 0.10 | 0.10 | 0.10 | 64 | 1007.2 |
| 20260506180210 | 17 | 238 | 1.6 | 8.0 | 0.08 | 0.08 | 0.08 | 64 | 1007.3 |
| 20260506180122 | 16 | 238 | 0.0 | 8.0 | 0.08 | 0.08 | 0.08 | 64 | 1006.8 |
| 20260506175704 | 17 | 314 | 1.6 | 8.0 | 0.05 | 0.05 | 0.05 | 64 | 1007.2 |
| 20260506175200 | 17 | 154 | 1.6 | 9.7 | 0.05 | 0.05 | 0.05 | 63 | 1007.4 |
| 20260506174659 | 18 | 303 | 1.6 | 17.7 | 0.03 | 0.03 | 0.03 | 60 | 1007.6 |
| 20260506174153 | 18 | 262 | 4.8 | 16.1 | 0.00 | 0.00 | 0.00 | 58 | 1007.6 |
| 20260506173657 | 18 | 153 | 8.0 | 16.1 | 0.00 | 0.00 | 0.00 | 55 | 1007.6 |
| 20260506173150 | 19 | 65 | 3.2 | 16.1 | 0.00 | 0.00 | 0.00 | 53 | 1007.4 |
| 20260506172651 | 20 | 98 | 4.8 | 14.5 | 0.00 | 0.00 | 0.00 | 52 | 1007.4 |